Theta_e
318 318 318 319 320 328 337 344 349 349 345 347 347 348 347 345 346 345 345 344 344 344 343 344 344 342 342 343 342 344 343 341 340 340 341 342 341 340 339 341 343 341 340 341
316 320 319 320 320 323 324 341 348 345 343 344 347 348 346 345 345 343 344 344 344 344 343 343 344 343 342 342 343 344 343 341 340 340 341 340 341 340 340 340 341 341 342 340
318 321 320 322 324 332 331 340 347 345 343 340 345 344 348 346 344 343 338 344 344 344 344 343 344 343 342 341 342 342 344 343 341 341 340 341 343 341 342 341 341 339 341 342
317 317 319 320 322 331 335 341 341 343 341 343 344 349 344 347 345 342 341 342 343 344 344 343 343 343 342 341 341 342 343 343 341 342 340 339 342 342 343 342 344 341 340 341
317 318 318 318 319 323 330 340 340 342 346 346 346 348 342 346 348 345 341 340 342 343 343 343 343 343 343 342 341 340 340 343 342 340 340 342 341 338 342 343 343 343 341 339
316 319 316 320 333 328 341 342 340 339 344 347 344 345 343 347 347 345 341 341 341 343 344 343 344 344 343 342 343 344 339 340 341 341 343 343 341 340 341 342 343 343 341 340
317 319 335 337 339 337 332 331 337 338 344 348 342 348 346 340 342 344 342 341 341 342 344 344 344 344 344 343 343 344 342 341 341 339 340 342 344 343 341 340 341 343 342 340
317 317 337 331 337 339 332 326 332 341 345 344 345 347 342 338 339 341 342 342 341 340 341 343 344 343 343 343 343 343 343 343 343 343 343 341 342 343 342 342 341 343 343 343
319 321 319 321 333 334 335 336 332 341 342 345 345 342 339 337 337 339 340 340 340 341 341 342 343 343 343 343 343 343 342 343 343 343 340 340 340 340 340 341 342 342 343 343
320 323 321 321 329 332 331 329 337 335 347 347 345 343 344 341 342 339 339 339 340 341 341 341 342 342 342 342 343 343 342 342 342 344 341 341 340 341 341 343 343 342 343 345
319 319 322 320 320 323 320 324 323 330 334 342 346 343 339 337 344 345 344 342 339 340 341 341 341 341 342 341 343 343 343 342 340 343 342 342 344 342 344 345 345 344 344 343
319 316 321 323 320 318 320 322 318 324 325 334 339 330 339 341 342 344 341 340 341 340 340 342 341 341 342 341 343 344 343 343 342 340 339 341 345 344 344 343 345 344 344 344
321 317 320 321 322 323 330 334 330 314 317 327 326 324 339 338 339 339 339 339 339 341 341 342 343 342 341 341 342 343 343 343 344 344 341 339 341 344 342 344 345 343 344 343
320 314 318 320 322 324 335 335 336 318 318 318 320 340 343 340 340 340 340 340 340 342 341 341 342 342 340 341 341 343 344 343 344 345 345 338 337 343 344 345 346 346 347 346
318 322 321 320 319 332 334 335 340 342 340 324 329 340 342 338 336 336 338 342 341 342 342 342 342 342 341 341 342 343 344 344 344 346 346 343 337 341 343 344 345 345 346 346
318 324 324 329 330 331 333 332 337 339 338 341 340 341 338 333 334 338 339 340 343 342 342 343 343 343 343 343 343 343 344 344 344 346 346 345 340 341 345 345 345 345 346 344
319 319 322 325 326 329 328 331 332 338 336 336 339 335 334 336 337 337 337 339 341 345 344 343 343 343 343 343 344 344 344 345 345 347 347 345 341 341 345 343 343 344 344 341
318 319 319 323 325 330 325 328 330 336 337 333 332 334 336 337 337 337 337 339 341 343 345 345 344 344 343 344 345 345 345 345 345 347 347 344 343 343 343 342 342 343 344 343
315 317 321 322 325 325 329 328 329 334 337 334 337 338 340 337 336 335 335 336 337 341 344 344 344 345 345 345 345 345 346 345 343 348 346 344 343 343 343 342 342 342 342 342
315 314 320 320 326 328 325 327 328 329 333 332 339 338 337 337 333 335 334 336 337 339 340 343 343 343 342 343 345 345 346 345 343 343 343 340 342 341 341 342 342 341 341 342
318 317 322 322 324 324 322 326 327 331 329 332 337 339 339 333 332 333 333 335 336 337 338 341 341 339 341 342 342 339 337 337 332 337 341 341 342 341 341 341 341 341 340 341
318 318 320 321 324 327 325 325 328 325 331 332 333 335 333 334 334 333 334 335 337 337 338 338 339 342 341 336 337 338 339 338 341 339 338 341 338 338 339 340 340 340 340 340
319 318 320 320 321 320 325 325 327 329 331 329 334 335 334 333 334 333 333 334 335 336 337 338 340 342 341 340 337 338 340 339 335 334 336 337 334 338 339 338 338 338 337 337
318 318 319 320 320 322 327 326 328 328 332 331 334 334 334 333 333 332 331 332 332 333 334 335 336 337 337 338 338 338 339 338 337 337 335 336 337 340 339 337 337 336 335 335
318 318 318 319 321 324 324 327 330 332 332 333 332 332 333 332 332 332 331 330 329 329 328 330 332 333 334 335 335 335 335 335 337 339 338 338 338 338 337 337 336 336 336 334
320 318 320 320 323 323 324 326 330 329 330 332 332 331 333 331 330 330 329 327 325 323 321 321 322 326 330 331 333 333 334 333 333 334 334 334 334 334 333 332 331 331 331 331
Wind_Speed
2 4 5 5 5 4 4 4 6 4 6 7 4 3 7 19 10 18 24 27 31 32 29 29 25 24 24 23 23 22 20 18 16 17 19 18 17 13 11 9 9 8 7 6
6 2 5 3 4 2 3 6 3 2 3 3 4 3 4 15 9 9 27 27 35 32 28 32 30 27 26 25 25 24 23 19 17 17 18 16 14 12 12 11 10 8 6 6
5 2 7 3 3 5 3 5 4 4 3 2 4 2 5 6 8 11 24 34 36 38 33 36 34 31 28 27 27 26 27 23 19 18 19 15 14 13 13 12 11 9 7 6
2 2 3 3 3 5 4 5 9 10 2 1 5 4 4 9 10 9 15 26 31 37 37 37 35 33 30 28 27 25 27 27 22 19 18 17 17 17 14 11 9 8 10 8
6 3 4 3 7 8 4 9 8 3 4 2 3 3 5 9 9 12 15 24 33 37 40 41 38 33 30 29 29 25 24 28 25 21 20 18 20 17 14 14 10 9 9 10
7 3 4 5 1 6 12 8 7 5 3 2 1 7 4 6 16 20 13 24 33 35 39 42 40 35 31 30 29 27 27 27 25 24 20 19 18 17 15 17 14 10 10 11
6 2 1 8 8 7 6 6 3 3 2 0 4 3 9 9 7 22 20 30 32 37 38 40 40 38 35 32 30 29 30 28 26 27 25 21 20 17 15 17 13 11 12 9
2 4 7 6 7 8 6 6 5 6 5 3 2 5 5 4 7 26 29 32 32 34 39 43 43 40 36 33 30 29 32 29 27 25 24 23 22 22 19 17 16 14 13 12
2 4 4 5 4 10 5 4 4 6 3 3 1 5 6 7 13 13 25 31 37 34 40 44 45 42 39 35 31 27 28 29 28 24 22 23 22 22 22 19 19 19 17 15
3 2 3 5 4 1 7 5 1 2 4 2 3 3 5 10 13 8 16 28 38 43 41 43 46 44 40 36 32 27 24 24 25 25 25 23 21 22 21 20 17 17 17 16
2 2 6 2 4 2 1 1 2 3 3 5 3 5 4 4 10 9 14 25 31 35 44 43 46 45 42 37 35 29 26 23 22 24 24 24 22 22 21 22 19 18 19 17
1 4 2 4 3 4 1 1 4 4 3 2 3 4 7 7 2 2 3 13 26 35 41 43 41 45 45 40 37 32 29 25 21 18 22 25 23 22 24 22 20 18 19 19
2 1 3 6 6 3 5 3 1 2 3 5 4 4 4 7 7 7 3 6 16 25 35 39 38 43 45 41 36 35 31 26 24 21 18 22 24 23 22 20 17 17 17 19
3 2 5 5 5 2 1 4 2 2 3 3 3 2 2 5 5 9 5 2 11 23 30 35 38 41 43 42 38 36 33 30 27 25 21 19 22 23 22 19 18 17 16 18
4 1 2 5 4 1 1 1 4 2 1 4 2 3 3 3 4 6 6 5 5 16 25 31 35 37 39 37 35 34 34 34 31 29 27 22 21 21 21 21 19 20 19 19
2 1 2 2 2 5 1 1 6 4 3 4 3 2 1 4 1 6 9 7 2 11 18 28 31 31 32 33 32 32 35 34 33 32 30 25 21 21 22 21 21 21 19 18
1 3 2 4 3 5 5 2 1 4 1 3 3 3 4 3 4 6 7 9 7 3 12 19 24 25 29 29 31 32 35 34 35 35 31 27 22 22 21 21 20 20 19 18
4 3 2 3 3 2 3 3 3 3 4 2 4 3 6 6 8 8 8 8 7 6 4 6 12 19 25 27 27 30 34 32 30 33 33 29 24 22 23 22 22 22 21 16
2 4 2 3 2 4 2 4 4 4 3 4 7 7 8 8 4 8 9 7 7 6 6 5 6 7 12 17 20 18 15 20 27 29 27 20 23 16 15 16 22 26 27 26
4 4 4 1 3 6 5 2 4 3 2 11 12 11 10 6 1 0 4 7 7 6 7 9 8 9 7 8 7 13 17 14 1 8 17 13 19 17 16 13 14 14 14 16
3 3 3 3 3 6 4 5 5 3 5 9 11 14 14 3 4 4 6 8 8 7 6 8 7 11 11 11 11 12 11 11 2 9 12 10 8 8 11 11 9 11 11 13
5 4 3 3 2 5 2 3 6 5 2 9 10 10 11 17 12 11 9 10 9 9 9 7 10 11 11 5 3 5 7 4 5 10 12 17 11 6 7 5 7 8 8 10
2 5 3 7 5 4 5 7 7 5 5 4 8 13 16 16 16 14 9 10 9 9 8 9 6 5 6 8 5 4 8 11 10 8 11 12 9 9 5 5 4 5 7 7
3 5 2 1 2 4 1 2 2 3 5 9 12 15 14 15 15 15 10 10 9 10 10 9 9 10 11 8 5 8 11 10 9 9 7 8 10 6 7 6 5 6 7 8
4 8 5 3 5 2 4 4 6 5 10 15 12 11 13 15 16 14 10 11 11 10 11 10 9 9 12 10 8 8 8 8 9 8 5 6 6 5 7 3 6 8 9 10
9 7 5 6 13 7 15 9 11 11 10 9 12 17 13 13 16 17 15 11 11 12 11 9 10 10 10 8 8 7 6 6 5 3 5 4 1 2 1 2 3 2 3 4
Wind_Direction
74 89 198 180 190 141 124 92 87 78 32 20 360 155 193 202 227 203 188 187 198 203 204 207 204 203 200 198 190 184 182 181 177 177 178 180 181 182 177 174 177 171 162 162
33 232 217 164 169 153 124 123 100 105 124 116 272 235 174 202 241 269 196 191 203 205 207 208 209 204 201 201 198 192 191 190 182 181 173 172 175 186 188 189 187 183 170 167
135 225 125 158 154 152 197 139 165 146 217 156 298 273 162 203 216 253 203 199 205 206 205 207 206 204 202 200 198 197 198 197 196 192 182 182 185 180 190 184 180 172 185 199
218 287 194 162 189 145 215 196 122 134 129 84 78 300 213 183 205 223 200 199 205 208 205 207 204 204 200 199 196 198 204 201 202 202 203 193 189 186 184 177 170 178 187 191
259 234 185 187 209 162 171 115 108 117 83 56 85 307 268 166 209 223 214 203 207 207 207 206 205 205 200 199 199 198 202 203 204 202 201 199 199 198 191 194 194 201 205 195
242 264 172 192 0 147 120 91 52 65 51 71 242 200 270 184 214 205 213 207 205 204 206 208 205 207 205 204 203 203 203 205 208 206 207 211 207 202 210 210 209 214 211 207
323 259 67 111 78 4 87 85 46 24 43 230 286 225 266 272 198 199 204 210 202 210 209 207 205 208 208 207 206 206 206 208 210 212 222 225 218 219 221 210 209 217 209 213
75 324 167 169 172 177 180 136 156 165 188 208 78 228 250 239 203 202 205 207 200 207 212 213 208 208 207 208 208 208 209 210 213 217 220 221 227 224 225 224 229 224 222 223
89 290 282 225 150 142 213 216 201 112 320 112 243 296 301 247 265 209 194 192 199 201 206 213 211 209 209 208 211 211 211 213 215 217 218 216 222 220 221 231 235 234 230 231
214 325 260 289 115 352 151 164 144 18 134 200 243 270 274 225 225 232 192 200 204 200 203 210 212 211 210 210 211 213 215 217 220 219 217 218 220 223 225 232 231 228 229 233
117 98 291 347 13 210 73 170 20 125 128 163 180 249 312 258 217 202 207 223 214 201 203 206 211 211 211 212 211 213 212 213 218 224 224 220 222 218 226 226 229 234 231 228
40 137 272 227 275 265 94 85 154 142 221 239 178 278 347 343 37 166 230 220 215 201 199 205 208 211 211 213 213 213 216 214 213 217 224 226 223 226 223 227 234 235 229 226
177 12 6 354 355 7 59 351 41 98 68 198 153 277 2 353 40 76 101 178 188 191 194 202 201 207 210 212 214 217 216 217 218 216 218 224 225 223 220 226 232 233 235 230
117 129 155 198 230 193 81 352 12 140 134 172 232 154 312 343 7 30 36 140 184 185 193 200 203 207 208 213 215 218 220 219 221 220 221 226 225 224 226 228 228 230 232 234
88 225 241 264 249 142 129 291 5 85 161 188 33 126 234 287 321 355 15 22 183 180 187 199 205 209 210 215 219 222 227 226 224 225 222 228 229 225 224 227 234 235 238 240
16 230 328 280 351 213 186 194 122 48 331 263 136 126 23 315 320 7 15 16 116 183 191 197 202 206 210 215 222 228 230 229 229 226 226 222 225 221 222 229 237 237 236 240
95 120 73 269 11 334 297 310 10 141 204 268 221 195 160 115 67 19 2 36 49 180 192 192 204 210 217 223 228 229 234 233 232 227 223 218 216 217 220 229 237 239 239 249
142 104 102 233 7 208 251 276 299 134 120 103 119 152 159 136 109 72 41 44 62 82 186 223 221 214 215 219 223 228 233 234 233 230 213 209 209 220 229 235 237 243 234 256
45 122 96 174 183 287 297 199 202 230 143 183 161 154 149 143 90 49 42 64 76 94 107 137 171 204 227 232 237 239 231 234 247 216 205 218 217 219 230 238 239 240 241 254
64 68 123 137 178 209 233 154 143 112 273 192 188 163 184 190 137 136 22 55 71 98 145 136 136 154 159 179 197 205 178 192 286 289 227 252 227 234 238 236 235 243 239 243
353 359 154 158 241 294 248 149 128 122 236 151 183 175 186 161 107 113 93 82 69 74 114 164 183 179 178 168 197 216 209 162 250 227 246 211 172 202 211 221 226 233 241 250
191 157 206 107 90 263 44 123 156 238 351 115 128 162 157 129 114 95 87 93 90 84 94 131 162 171 174 149 182 169 203 198 209 187 222 204 210 214 243 237 210 222 240 247
262 186 187 179 218 264 300 255 262 254 162 151 127 133 135 128 114 100 84 80 81 85 92 96 125 185 201 198 176 218 248 189 190 222 234 243 234 230 214 264 232 229 237 230
229 182 181 51 265 249 268 215 214 219 199 146 136 132 135 119 100 100 120 104 90 82 84 91 104 118 119 126 137 173 187 197 202 204 217 218 235 236 215 216 224 231 223 231
200 145 164 257 275 255 237 178 91 116 142 129 130 130 127 124 119 132 128 111 102 95 93 92 89 106 109 115 128 123 115 102 145 173 171 204 202 215 213 225 239 221 222 226
193 179 162 214 193 184 183 157 132 120 117 124 135 128 138 139 132 132 122 107 101 99 99 99 103 105 114 120 126 123 118 113 112 136 137 133 96 251 357 44 9 36 14 1